TimeEST,TemperatureF,Dew PointF,Humidity,Sea Level PressureIn,VisibilityMPH,Wind Direction,Wind SpeedMPH,Gust SpeedMPH,PrecipitationIn,Events,Conditions,WindDirDegrees,DateUTC
12:15 AM,60.8,60.8,100,30.04,10.0,Calm,Calm,-,N/A,Rain,Rain,0,2013-01-14 05:15:00
12:35 AM,60.8,60.8,100,30.05,10.0,Calm,Calm,-,N/A,,Overcast,0,2013-01-14 05:35:00
1:15 AM,60.8,60.8,100,30.05,4.0,Calm,Calm,-,0.01,Rain,Heavy Rain,0,2013-01-14 06:15:00
1:35 AM,60.8,60.8,100,30.05,7.0,Calm,Calm,-,0.01,Rain,Rain,0,2013-01-14 06:35:00
1:55 AM,55.4,55.4,100,30.06,10.0,North,8.1,19.6,0.01,Rain,Light Rain,350,2013-01-14 06:55:00
2:15 AM,51.8,51.8,100,30.07,10.0,NNW,13.8,20.7,N/A,Rain,Light Rain,340,2013-01-14 07:15:00
2:35 AM,50.0,50.0,100,30.09,10.0,North,13.8,20.7,N/A,Rain,Light Rain,350,2013-01-14 07:35:00
2:55 AM,48.2,48.2,100,30.09,10.0,NNW,13.8,-,N/A,Rain,Light Rain,340,2013-01-14 07:55:00
3:15 AM,46.4,46.4,100,30.09,7.0,NNW,8.1,-,N/A,,Drizzle,340,2013-01-14 08:15:00
3:55 AM,46.4,46.4,100,30.10,7.0,NNW,9.2,19.6,N/A,,Heavy Drizzle,340,2013-01-14 08:55:00
4:15 AM,46.4,46.4,100,30.09,7.0,North,12.7,16.1,N/A,Rain,Rain,350,2013-01-14 09:15:00
4:35 AM,44.6,44.6,100,30.09,7.0,NNW,12.7,-,N/A,Rain,Rain,340,2013-01-14 09:35:00
4:55 AM,44.6,44.6,100,30.09,5.0,NNW,11.5,-,N/A,,Drizzle,340,2013-01-14 09:55:00
5:15 AM,44.6,44.6,100,30.08,7.0,NNW,12.7,-,N/A,,Light Drizzle,330,2013-01-14 10:15:00
5:35 AM,44.6,44.6,100,30.10,10.0,NNW,12.7,-,N/A,,Overcast,330,2013-01-14 10:35:00
5:55 AM,44.6,44.6,100,30.09,10.0,North,12.7,20.7,N/A,,Drizzle,350,2013-01-14 10:55:00
6:15 AM,44.6,44.6,100,30.10,10.0,NNW,12.7,17.3,N/A,,Drizzle,340,2013-01-14 11:15:00
6:35 AM,44.6,44.6,100,30.10,10.0,NNW,11.5,-,N/A,,Overcast,340,2013-01-14 11:35:00
6:55 AM,44.6,44.6,100,30.10,10.0,North,12.7,18.4,N/A,,Overcast,350,2013-01-14 11:55:00
7:15 AM,44.6,44.6,100,30.11,10.0,North,12.7,18.4,N/A,Rain,Light Rain,350,2013-01-14 12:15:00
7:35 AM,44.6,44.6,100,30.12,5.0,NNW,11.5,-,N/A,Rain,Heavy Rain,340,2013-01-14 12:35:00
7:55 AM,44.6,44.6,100,30.13,10.0,NNW,10.4,-,N/A,Rain,Light Rain,340,2013-01-14 12:55:00
8:15 AM,44.6,44.6,100,30.14,4.0,NNW,13.8,-,N/A,,Unknown,340,2013-01-14 13:15:00
8:35 AM,44.6,44.6,100,30.15,2.0,NNW,12.7,20.7,N/A,,Unknown,340,2013-01-14 13:35:00
8:55 AM,44.6,44.6,100,30.16,7.0,North,10.4,-,N/A,Rain,Light Rain,350,2013-01-14 13:55:00
9:15 AM,44.6,44.6,100,30.17,5.0,NNW,13.8,20.7,N/A,Rain,Rain,340,2013-01-14 14:15:00
9:35 AM,44.6,44.6,100,30.17,5.0,NNW,15.0,23.0,0.01,Rain,Light Rain,340,2013-01-14 14:35:00
9:55 AM,44.6,44.6,100,30.17,4.0,NNW,12.7,17.3,0.01,Rain,Light Rain,340,2013-01-14 14:55:00
10:15 AM,42.8,42.8,100,30.17,5.0,North,15.0,21.9,N/A,Rain,Light Rain,350,2013-01-14 15:15:00
10:35 AM,42.8,42.8,100,30.17,5.0,NNW,9.2,17.3,N/A,Rain,Rain,340,2013-01-14 15:35:00
10:55 AM,42.8,42.8,100,30.16,4.0,NNW,9.2,-,N/A,Rain,Rain,340,2013-01-14 15:55:00
11:15 AM,42.8,42.8,100,30.17,5.0,NNW,11.5,16.1,N/A,Rain,Rain,340,2013-01-14 16:15:00
11:35 AM,42.8,42.8,100,30.15,1.2,North,8.1,-,0.01,,Unknown,350,2013-01-14 16:35:00
11:55 AM,42.8,42.8,100,30.15,7.0,NNW,10.4,-,0.01,Rain,Rain,340,2013-01-14 16:55:00
12:15 PM,42.8,42.8,100,30.14,5.0,North,8.1,-,N/A,Rain,Rain,350,2013-01-14 17:15:00
12:35 PM,42.8,42.8,100,30.12,5.0,North,9.2,-,N/A,Rain,Rain,350,2013-01-14 17:35:00
12:55 PM,42.8,42.8,100,30.12,7.0,NNW,9.2,-,N/A,Rain,Rain,340,2013-01-14 17:55:00
1:15 PM,42.8,42.8,100,30.10,5.0,North,6.9,-,N/A,Rain,Light Rain,350,2013-01-14 18:15:00
1:35 PM,42.8,42.8,100,30.11,5.0,NNW,5.8,-,0.01,Rain,Light Rain,340,2013-01-14 18:35:00
1:55 PM,42.8,42.8,100,30.10,3.0,North,6.9,-,0.01,Rain,Rain,350,2013-01-14 18:55:00
2:15 PM,42.8,42.8,100,30.10,4.0,NNW,5.8,-,N/A,Rain,Rain,330,2013-01-14 19:15:00
2:35 PM,42.8,42.8,100,30.10,4.0,NNW,3.5,-,N/A,Rain,Rain,340,2013-01-14 19:35:00
3:15 PM,42.8,42.8,100,30.10,10.0,Calm,Calm,-,0.01,Rain,Light Rain,0,2013-01-14 20:15:00
3:35 PM,44.6,44.6,100,30.12,10.0,NNW,4.6,-,0.01,Rain,Rain,340,2013-01-14 20:35:00
3:55 PM,44.6,44.6,100,30.14,10.0,NNW,9.2,-,0.01,,Overcast,330,2013-01-14 20:55:00
4:15 PM,42.8,42.8,100,30.16,10.0,NNW,10.4,-,N/A,,Overcast,340,2013-01-14 21:15:00
4:35 PM,42.8,42.8,100,30.17,10.0,North,10.4,-,N/A,Rain,Light Rain,350,2013-01-14 21:35:00
4:55 PM,42.8,42.8,100,30.16,10.0,North,10.4,-,N/A,Rain,Rain,350,2013-01-14 21:55:00
5:15 PM,42.8,42.8,100,30.17,7.0,NNW,16.1,20.7,N/A,Rain,Light Rain,340,2013-01-14 22:15:00
5:35 PM,42.8,42.8,100,30.18,7.0,North,12.7,21.9,N/A,Rain,Rain,350,2013-01-14 22:35:00
5:55 PM,42.8,42.8,100,30.19,10.0,NNW,10.4,18.4,N/A,,Overcast,340,2013-01-14 22:55:00
6:15 PM,42.8,42.8,100,30.19,10.0,NNW,16.1,21.9,N/A,,Overcast,340,2013-01-14 23:15:00
6:35 PM,42.8,42.8,100,30.20,10.0,NNW,17.3,23.0,N/A,,Overcast,340,2013-01-14 23:35:00
6:55 PM,42.8,42.8,100,30.22,10.0,NNW,10.4,18.4,N/A,,Overcast,340,2013-01-14 23:55:00
7:15 PM,42.8,42.8,100,30.22,5.0,NNW,16.1,19.6,N/A,,Drizzle,340,2013-01-15 00:15:00
7:35 PM,41.0,41.0,100,30.21,5.0,North,12.7,23.0,N/A,Rain,Light Rain,350,2013-01-15 00:35:00
7:55 PM,41.0,41.0,100,30.20,7.0,North,10.4,-,N/A,,Light Drizzle,350,2013-01-15 00:55:00
8:15 PM,41.0,41.0,100,30.20,10.0,NNW,17.3,24.2,N/A,,Drizzle,340,2013-01-15 01:15:00
8:35 PM,41.0,41.0,100,30.20,10.0,North,12.7,-,N/A,Rain,Rain,350,2013-01-15 01:35:00
8:55 PM,41.0,41.0,100,30.20,7.0,North,10.4,18.4,N/A,,Drizzle,350,2013-01-15 01:55:00
9:15 PM,41.0,41.0,100,30.19,7.0,North,8.1,-,N/A,,Light Drizzle,360,2013-01-15 02:15:00
9:35 PM,39.2,39.2,100,30.19,7.0,NNW,11.5,-,N/A,,Heavy Drizzle,340,2013-01-15 02:35:00
9:55 PM,39.2,39.2,100,30.18,5.0,NNW,10.4,-,N/A,Rain,Rain,340,2013-01-15 02:55:00
10:15 PM,39.2,39.2,100,30.17,7.0,NNW,9.2,-,N/A,Rain,Light Rain,340,2013-01-15 03:15:00
10:35 PM,39.2,39.2,100,30.17,10.0,North,5.8,-,N/A,Rain,Light Rain,360,2013-01-15 03:35:00
10:55 PM,39.2,39.2,100,30.17,10.0,NNW,6.9,-,N/A,Rain,Rain,340,2013-01-15 03:55:00
11:15 PM,39.2,39.2,100,30.16,10.0,NNW,8.1,-,N/A,Rain,Rain,330,2013-01-15 04:15:00
11:35 PM,39.2,39.2,100,30.15,10.0,NNW,6.9,-,N/A,,Drizzle,340,2013-01-15 04:35:00
11:55 PM,39.2,39.2,100,30.14,10.0,North,5.8,-,N/A,,Light Drizzle,360,2013-01-15 04:55:00